Regional Weather Roundup
Issued by NWS

Home | Current Version | Previous Version | Graphics & Text | Print | Product List | Glossary On
Versions: 1 2 3 4 5 6 7 8 9 10 11 12 13 14 15 16 17 18 19 20 21 22 23 24 25 26 27 28 29 30 31 32 33 34 35 36 37 38 39 40 41 42 43 44 45 46 47 48 49 50
000
ASUS44 KMEG 300800
RWRTN
TENNESSEE HOURLY STATE WEATHER ROUNDUP
NATIONAL WEATHER SERVICE MEMPHIS TN
300 AM CDT THU OCT 30 2014

TNZ002-004-019-021-049-052-054-088>092-300900-
WEST TENNESSEE

CITY           SKY/WX    TMP DP  RH WIND       PRES   REMARKS
MEMPHIS INTL   CLEAR     46  43  89 CALM      30.13F
NWS MEMPHIS      N/A     43 N/A N/A MISG        N/A
JACKSON        CLEAR     41  38  89 CALM      30.15S
DYERSBURG      CLEAR     39  28  65 CALM      30.17S
UNION CITY     CLEAR     39  37  93 CALM      30.15R
PARIS          CLEAR     36  34  93 CALM      30.14F
SAVANNAH       CLEAR     37  37 100 CALM      30.13F
$$

TNZ008-025-027-028-033-062-065-066-300900-
NORTH MIDDLE TENNESSEE

CITY           SKY/WX    TMP DP  RH WIND       PRES   REMARKS
NASHVILLE      CLEAR     41  39  93 CALM      30.14S
CLARKSVILLE    CLEAR     38  36  92 CALM      30.14F
COOKEVILLE     CLEAR     36  36 100 CALM      30.10F
CROSSVILLE     CLEAR     43  35  73 N3        30.10F
$$

TNZ061-075-076-078-094-096-097-300900-
SOUTH MIDDLE TENNESSEE

CITY           SKY/WX    TMP DP  RH WIND       PRES   REMARKS
TULLAHOMA      CLEAR     37  36  93 CALM      30.11F
WINCHESTER     CLEAR     37  37 100 CALM      30.11S
SHELBYVILLE    CLEAR     37  37 100 CALM      30.13S
$$

TNZ017-018-042-046-047-300900-
NORTHEAST TENNESSEE

CITY           SKY/WX    TMP DP  RH WIND       PRES   REMARKS
TRI CITIES     FOG       40  40 100 CALM      30.08S VSB 1/16
ELIZABETHTON   MOSUNNY   34  34 100 CALM      30.08S
$$

TNZ012-013-036-069-073-074-300900-
CENTRAL EAST TENNESSEE

CITY           SKY/WX    TMP DP  RH WIND       PRES   REMARKS
KNOXVILLE      CLEAR     42  40  92 SE3       30.09
OAK RIDGE      FOG       42  41  96 CALM      30.11S VSB 1/4
GATLINBURG     SUNNY     37  37 100 CALM      30.09S
MORRISTOWN     SUNNY     39  39 100 CALM      30.09S
$$

TNZ083-085-099-300900-
SOUTHEAST TENNESSEE

CITY           SKY/WX    TMP DP  RH WIND       PRES   REMARKS
CHATTANOOGA    CLEAR     44  41  89 CALM      30.10S
$$

SKY/WX REPORTED AS FAIR MEANS FEW OR NO CLOUDS BELOW
12 THOUSAND FEET.




USA.gov is the U.S. government's official web portal to all federal, state and local government web resources and services.